Flag for Spain Weather past 2 weeks in Santander, Spain

Now
61 °F

Broken clouds.


Feels Like: 61 °F
Forecast: 55 / 60 °F
Wind: 6 mph from North

Location: Santander / Parayas

Current Time: May 25, 2015 at 12:36:34 PM

Latest Report: May 25, 2015 at 12:00 PM


Visibility: N/A

Pressure: 30.24 "Hg

Humidity: 77%

Dew point: 54 °F

Location of SantanderLocation

Historic Weather in Santander — Graph

°F

Santander temperature yesterday

Maximum temperature yesterday: 63 °F (at 1:30 PM)
Minimum temperature yesterday: 54 °F (at 5:30 AM)
Average temperature yesterday: 59 °F

Past Weeks' High & Low Weather Summary

 TemperatureHumidityPressure
High72 °F (May 10, 4:30 PM)100% (May 13, 6:00 AM)30.54 "Hg (May 13, 6:00 AM)
Low46 °F (May 18, 5:30 AM)53% (May 10, 4:30 PM)30.04 "Hg (May 13, 5:30 AM)
Average58 °F80%30.24 "Hg
* Reported May 10 11:00 AM — May 25 11:30 AM, Santander, Weather by CustomWeather, © 2015

Note: Actual official high and low records may vary slightly from our data, if they occured in-between our weather recording intervals... More about our weather records

Advertising

Santander weather history for previous 24 hours

 ConditionsComfort  
Time TempWeatherWind HumidityBarometerVisibility
11:30 AM
Mon, May 25
61 °FBroken clouds.5 mph77%30.24 "HgN/A
11:00 AM61 °FBroken clouds.6 mph77%30.24 "HgN/A
10:30 AM59 °FBroken clouds.7 mph82%30.24 "HgN/A
10:00 AM59 °FBroken clouds.5 mph82%30.24 "HgN/A
9:30 AM59 °FBroken clouds.5 mph82%30.24 "HgN/A
9:00 AM57 °FPartly sunny.6 mph88%30.24 "HgN/A
8:30 AM57 °FPartly sunny.2 mph88%30.21 "HgN/A
8:00 AM57 °FPartly sunny.No wind88%30.21 "HgN/A
7:30 AM57 °FPassing clouds.No wind88%30.21 "HgN/A
7:00 AM57 °FPassing clouds.1 mph88%30.21 "HgN/A
6:30 AM57 °FPassing clouds.2 mph88%30.21 "HgN/A
5:30 AM57 °FPartly cloudy.2 mph88%30.21 "HgN/A
11:00 PM
Sun, May 24
59 °FPartly cloudy.5 mph82%30.21 "HgN/A
10:30 PM59 °FMostly cloudy.3 mph88%30.21 "HgN/A
10:00 PM59 °FMostly cloudy.3 mph88%30.21 "HgN/A
9:30 PM59 °FLight rain. More clouds than sun.3 mph88%30.21 "HgN/A
9:00 PM59 °FMore clouds than sun.6 mph82%30.21 "HgN/A
8:30 PM59 °FOvercast.7 mph82%30.18 "HgN/A
8:00 PM61 °FPartly sunny.6 mph77%30.18 "HgN/A
7:30 PM61 °FPartly sunny.2 mph77%30.18 "HgN/A
7:00 PM61 °FPartly sunny.5 mph77%30.18 "HgN/A
6:30 PM61 °FPartly sunny.5 mph77%30.18 "HgN/A
6:00 PM63 °FPartly sunny.5 mph77%30.18 "HgN/A
5:30 PM63 °FPartly sunny.5 mph73%30.18 "HgN/A
5:00 PM61 °FPartly sunny.6 mph83%30.18 "HgN/A
4:30 PM63 °FPartly sunny.8 mph77%30.21 "HgN/A
4:00 PM63 °FBroken clouds.7 mph77%30.21 "HgN/A
3:30 PM63 °FBroken clouds.6 mph73%30.18 "HgN/A
3:00 PM63 °FBroken clouds.5 mph77%30.18 "HgN/A
2:30 PM61 °FMore clouds than sun.6 mph77%30.18 "HgN/A
2:00 PM61 °FMore clouds than sun.5 mph77%30.21 "HgN/A
1:30 PM63 °FMore clouds than sun.3 mph77%30.21 "HgN/A
1:00 PM61 °FMore clouds than sun.3 mph83%30.21 "HgN/A
12:30 PM59 °FMore clouds than sun.6 mph88%30.21 "HgN/A
12:00 PM59 °FLight rain. Mostly cloudy.2 mph82%30.21 "HgN/A
Weather by CustomWeather, © 2015

See weather overviewHow to use our weather pages